When you browse on this site, cookies collect data to enhance your experience and personalize the content and advertising you see.
Visit our Privacy Policy to learn more. By continuing to use the site, you agree to this use of cookies and data.
  • In Hungary
  • List of Countries
  • For 7 days
  • Water Temperature
  • Satellite Maps
  • Weather Map
  • News
  • Weather Widgets
  • user-avatar
    Login

    Hourly Weather Karasino

    Today, 16 January, Wednesday

    Time Temperature Precipitation Wind Pressure Humidity
    00:00 -9°C° 0.4 mm 4 mps 726 mmHg 92%
    01:00 -9°C° 0.4 mm 4 mps 726 mmHg 92%
    02:00 -9°C° 0.4 mm 3 mps 727 mmHg 92%
    03:00 -9°C° 0.1 mm 3 mps 727 mmHg 92%
    04:00 -9°C° 0.1 mm 3 mps 727 mmHg 92%
    05:00 -10°C° 0.1 mm 3 mps 728 mmHg 93%
    06:00 -10°C° 0 mm 3 mps 728 mmHg 93%
    07:00 -10°C° 0 mm 3 mps 728 mmHg 93%
    08:00 -10°C° 0 mm 3 mps 728 mmHg 93%
    09:00 -10°C° 0 mm 3 mps 729 mmHg 93%
    10:00 -9°C° 0 mm 3 mps 729 mmHg 92%
    11:00 -9°C° 0 mm 3 mps 729 mmHg 91%
    12:00 -9°C° 0 mm 3 mps 729 mmHg 91%
    13:00 -9°C° 0 mm 3 mps 729 mmHg 91%
    14:00 -8°C° 0 mm 3 mps 730 mmHg 91%
    15:00 -8°C° 0 mm 3 mps 730 mmHg 92%
    16:00 -9°C° 0 mm 3 mps 730 mmHg 93%
    17:00 -9°C° 0 mm 3 mps 731 mmHg 93%
    18:00 -9°C° 0 mm 3 mps 731 mmHg 94%
    19:00 -8°C° 0 mm 3 mps 731 mmHg 94%
    20:00 -8°C° 0 mm 3 mps 731 mmHg 94%
    21:00 -8°C° 0 mm 3 mps 732 mmHg 93%
    22:00 -8°C° 0 mm 3 mps 732 mmHg 92%
    23:00 -9°C° 0 mm 3 mps 732 mmHg 91%

    Tomorrow, 17 January, Thursday

    Time Temperature Precipitation Wind Pressure Humidity
    00:00 -9°C° 0 mm 3 mps 733 mmHg 91%
    01:00 -10°C° 0 mm 3 mps 733 mmHg 91%
    02:00 -10°C° 0 mm 3 mps 733 mmHg 91%
    03:00 -12°C° 0 mm 3 mps 733 mmHg 93%
    04:00 -10°C° 0 mm 2 mps 733 mmHg 94%
    05:00 -12°C° 0 mm 2 mps 733 mmHg 95%
    06:00 -10°C° 0 mm 2 mps 733 mmHg 95%
    07:00 -12°C° 0 mm 3 mps 732 mmHg 95%
    08:00 -12°C° 0 mm 3 mps 732 mmHg 95%
    09:00 -10°C° 0.3 mm 3 mps 731 mmHg 94%
    10:00 -10°C° 0.3 mm 4 mps 731 mmHg 93%
    11:00 -9°C° 0.3 mm 4 mps 730 mmHg 92%
    12:00 -8°C° 0.4 mm 4 mps 729 mmHg 92%
    13:00 -7°C° 0.4 mm 4 mps 728 mmHg 92%
    14:00 -4°C° 0.4 mm 4 mps 728 mmHg 92%
    15:00 -3°C° 0.9 mm 4 mps 727 mmHg 92%
    16:00 -2°C° 0.9 mm 5 mps 726 mmHg 92%
    17:00 -1°C° 0.9 mm 5 mps 725 mmHg 92%
    18:00 -1°C° 1 mm 5 mps 725 mmHg 91%
    19:00 -1°C° 1 mm 6 mps 724 mmHg 90%
    20:00 -1°C° 1 mm 6 mps 724 mmHg 89%
    21:00 -1°C° 0.1 mm 6 mps 724 mmHg 88%
    22:00 -2°C° 0.1 mm 6 mps 725 mmHg 86%
    23:00 -2°C° 0.1 mm 6 mps 725 mmHg 85%

    Day after tomorrow, 18 January, Friday

    Time Temperature Precipitation Wind Pressure Humidity
    00:00 -1°C° 0 mm 5 mps 726 mmHg 85%
    01:00 -1°C° 0 mm 5 mps 726 mmHg 84%
    02:00 -1°C° 0 mm 5 mps 727 mmHg 84%
    03:00 -2°C° 0 mm 4 mps 727 mmHg 85%
    04:00 -2°C° 0 mm 4 mps 727 mmHg 87%
    05:00 -2°C° 0 mm 3 mps 727 mmHg 88%
    06:00 -3°C° 0 mm 4 mps 727 mmHg 87%
    07:00 -3°C° 0 mm 4 mps 726 mmHg 87%
    08:00 -2°C° 0 mm 5 mps 726 mmHg 86%
    09:00 -2°C° 0.4 mm 5 mps 725 mmHg 86%
    10:00 -3°C° 0.4 mm 6 mps 725 mmHg 87%
    11:00 -2°C° 0.4 mm 6 mps 725 mmHg 87%
    12:00 -3°C° 0.3 mm 6 mps 725 mmHg 86%
    13:00 -4°C° 0.3 mm 6 mps 725 mmHg 85%
    14:00 -5°C° 0.3 mm 6 mps 725 mmHg 84%
    15:00 -5°C° 0.2 mm 6 mps 725 mmHg 84%
    16:00 -6°C° 0.2 mm 6 mps 726 mmHg 84%
    17:00 -8°C° 0.2 mm 6 mps 726 mmHg 84%
    18:00 -9°C° 0.1 mm 6 mps 727 mmHg 85%
    19:00 -10°C° 0.1 mm 5 mps 727 mmHg 85%
    20:00 -11°C° 0.1 mm 5 mps 728 mmHg 85%
    21:00 -10°C° 0.1 mm 5 mps 728 mmHg 86%
    22:00 -10°C° 0.1 mm 5 mps 729 mmHg 86%
    23:00 -10°C° 0.1 mm 5 mps 729 mmHg 87%

    19 January, Saturday

    Time Temperature Precipitation Wind Pressure Humidity
    00:00 -10°C° 0.1 mm 5 mps 730 mmHg 87%
    01:00 -10°C° 0.1 mm 5 mps 730 mmHg 87%
    02:00 -10°C° 0.1 mm 5 mps 731 mmHg 87%
    03:00 -10°C° 0.1 mm 5 mps 731 mmHg 87%
    04:00 -10°C° 0.1 mm 5 mps 731 mmHg 87%
    05:00 -10°C° 0.1 mm 6 mps 732 mmHg 87%
    06:00 -10°C° 0.1 mm 6 mps 732 mmHg 87%
    07:00 -10°C° 0.1 mm 6 mps 733 mmHg 87%
    08:00 -10°C° 0.1 mm 6 mps 733 mmHg 86%
    09:00 -10°C° 0.1 mm 6 mps 734 mmHg 86%
    10:00 -10°C° 0.1 mm 6 mps 735 mmHg 85%
    11:00 -10°C° 0.1 mm 6 mps 735 mmHg 85%
    12:00 -10°C° 0.1 mm 6 mps 735 mmHg 85%
    13:00 -10°C° 0.1 mm 5 mps 736 mmHg 85%
    14:00 -10°C° 0.1 mm 5 mps 736 mmHg 85%
    15:00 -10°C° 0 mm 5 mps 736 mmHg 86%
    16:00 -10°C° 0 mm 5 mps 737 mmHg 86%
    17:00 -10°C° 0 mm 4 mps 737 mmHg 87%
    18:00 -10°C° 0 mm 4 mps 737 mmHg 88%
    19:00 -10°C° 0 mm 4 mps 737 mmHg 88%
    20:00 -10°C° 0 mm 4 mps 738 mmHg 89%
    21:00 -10°C° 0 mm 4 mps 738 mmHg 90%
    22:00 -9°C° 0 mm 3 mps 738 mmHg 91%
    23:00 -9°C° 0 mm 3 mps 739 mmHg 91%

    20 January, Sunday

    Time Temperature Precipitation Wind Pressure Humidity
    00:00 -10°C° 0 mm 3 mps 739 mmHg 93%
    01:00 -10°C° 0 mm 2 mps 739 mmHg 94%
    02:00 -12°C° 0 mm 2 mps 740 mmHg 96%
    03:00 -12°C° 0 mm 2 mps 740 mmHg 96%
    04:00 -12°C° 0 mm 2 mps 740 mmHg 96%
    05:00 -12°C° 0 mm 2 mps 740 mmHg 97%
    06:00 -13°C° 0 mm 2 mps 740 mmHg 97%
    07:00 -13°C° 0 mm 2 mps 741 mmHg 97%
    08:00 -13°C° 0 mm 2 mps 741 mmHg 97%
    09:00 -13°C° 0 mm 2 mps 741 mmHg 96%
    10:00 -12°C° 0 mm 2 mps 742 mmHg 95%
    11:00 -10°C° 0 mm 2 mps 742 mmHg 94%
    12:00 -10°C° 0 mm 2 mps 742 mmHg 93%
    13:00 -9°C° 0 mm 2 mps 742 mmHg 92%
    14:00 -9°C° 0 mm 2 mps 742 mmHg 91%
    15:00 -10°C° 0 mm 2 mps 743 mmHg 93%
    16:00 -9°C° 0 mm 1 mps 743 mmHg 94%
    17:00 -10°C° 0 mm 1 mps 743 mmHg 96%
    18:00 -11°C° 0 mm 1 mps 743 mmHg 96%
    19:00 -11°C° 0 mm 1 mps 743 mmHg 97%
    20:00 -12°C° 0 mm 1 mps 744 mmHg 97%
    21:00 -12°C° 0 mm 1 mps 744 mmHg 97%
    22:00 -12°C° 0 mm 1 mps 744 mmHg 97%
    23:00 -13°C° 0 mm 1 mps 744 mmHg 97%

    21 January, Monday

    Time Temperature Precipitation Wind Pressure Humidity
    00:00 -13°C° 0 mm 1 mps 745 mmHg 97%
    01:00 -14°C° 0 mm 1 mps 745 mmHg 97%
    02:00 -14°C° 0 mm 1 mps 745 mmHg 97%
    03:00 -15°C° 0 mm 1 mps 745 mmHg 97%
    04:00 -15°C° 0 mm 1 mps 746 mmHg 97%
    05:00 -15°C° 0 mm 1 mps 746 mmHg 98%
    06:00 -16°C° 0 mm 1 mps 746 mmHg 98%
    07:00 -16°C° 0 mm 1 mps 747 mmHg 98%
    08:00 -19°C° 0 mm 2 mps 747 mmHg 98%
    09:00 -18°C° 0 mm 2 mps 747 mmHg 97%
    10:00 -18°C° 0 mm 2 mps 748 mmHg 97%
    11:00 -17°C° 0 mm 2 mps 748 mmHg 96%
    12:00 -16°C° 0 mm 2 mps 748 mmHg 95%
    13:00 -16°C° 0 mm 2 mps 748 mmHg 95%
    14:00 -16°C° 0 mm 2 mps 748 mmHg 94%
    15:00 -16°C° 0 mm 2 mps 749 mmHg 95%
    16:00 -17°C° 0 mm 2 mps 749 mmHg 96%
    17:00 -18°C° 0 mm 2 mps 749 mmHg 97%
    18:00 -19°C° 0 mm 2 mps 749 mmHg 98%
    19:00 -20°C° 0 mm 2 mps 749 mmHg 98%
    20:00 -21°C° 0 mm 2 mps 749 mmHg 99%
    21:00 -20°C° 0 mm 1 mps 749 mmHg 99%
    22:00 -20°C° 0 mm 1 mps 749 mmHg 99%
    23:00 -21°C° 0 mm 1 mps 750 mmHg 99%
    Show more